Year,Month,Day,Hour,Minute,Value (Times are PST for temperature in C)
2011,05,28,00,00,7.20
2011,05,28,00,01,7.20
2011,05,28,00,02,7.10
2011,05,28,00,03,7.10
2011,05,28,00,04,7.10
2011,05,28,00,05,7.10
2011,05,28,00,06,7.00
2011,05,28,00,07,7.00
2011,05,28,00,08,7.00
2011,05,28,00,09,7.00
2011,05,28,00,10,7.00
2011,05,28,00,11,7.00
2011,05,28,00,12,7.00
2011,05,28,00,13,7.00
2011,05,28,00,14,6.90
2011,05,28,00,15,6.90
2011,05,28,00,16,6.90
2011,05,28,00,17,6.90
2011,05,28,00,18,6.90
2011,05,28,00,19,6.80
2011,05,28,00,20,6.80
2011,05,28,00,21,6.80
2011,05,28,00,22,6.70
2011,05,28,00,23,6.70
2011,05,28,00,24,6.70
2011,05,28,00,25,6.70
2011,05,28,00,26,6.60
2011,05,28,00,27,6.60
2011,05,28,00,28,6.60
2011,05,28,00,29,6.60
2011,05,28,00,30,6.60
2011,05,28,00,31,6.60
2011,05,28,00,32,6.60
2011,05,28,00,33,6.60
2011,05,28,00,34,6.60
2011,05,28,00,35,6.60
2011,05,28,00,36,6.60
2011,05,28,00,37,6.60
2011,05,28,00,38,6.60
2011,05,28,00,39,6.60
2011,05,28,00,40,6.60
2011,05,28,00,41,6.60
2011,05,28,00,42,6.60
2011,05,28,00,43,6.50
2011,05,28,00,44,6.50
2011,05,28,00,45,6.40
2011,05,28,00,46,6.40
2011,05,28,00,47,6.40
2011,05,28,00,48,6.40
2011,05,28,00,49,6.30
2011,05,28,00,50,6.30
2011,05,28,00,51,6.20
2011,05,28,00,52,6.20
2011,05,28,00,53,6.20
2011,05,28,00,54,6.20
2011,05,28,00,55,6.10
2011,05,28,00,56,6.10
2011,05,28,00,57,6.10
2011,05,28,00,58,6.10
2011,05,28,00,59,6.10
2011,05,28,01,00,6.10
2011,05,28,01,01,6.10
2011,05,28,01,02,6.10
2011,05,28,01,03,6.10
2011,05,28,01,04,6.10
2011,05,28,01,05,6.10
2011,05,28,01,06,6.10
2011,05,28,01,07,6.10
2011,05,28,01,08,6.10
2011,05,28,01,09,6.10
2011,05,28,01,10,6.00
2011,05,28,01,11,6.00
2011,05,28,01,12,6.00
2011,05,28,01,13,6.00
2011,05,28,01,14,5.90
2011,05,28,01,15,5.90
2011,05,28,01,16,5.90
2011,05,28,01,17,5.90
2011,05,28,01,18,5.90
2011,05,28,01,19,5.80
2011,05,28,01,20,5.80
2011,05,28,01,21,5.80
2011,05,28,01,22,5.80
2011,05,28,01,23,5.80
2011,05,28,01,24,5.70
2011,05,28,01,25,5.70
2011,05,28,01,26,5.70
2011,05,28,01,27,5.70
2011,05,28,01,28,5.70
2011,05,28,01,29,5.70
2011,05,28,01,30,5.70
2011,05,28,01,31,5.70
2011,05,28,01,32,5.70
2011,05,28,01,33,5.70
2011,05,28,01,34,5.70
2011,05,28,01,35,5.70
2011,05,28,01,36,5.70
2011,05,28,01,37,5.70
2011,05,28,01,38,5.70
2011,05,28,01,39,5.70
2011,05,28,01,40,5.70
2011,05,28,01,41,5.60
2011,05,28,01,42,5.60
2011,05,28,01,43,5.60
2011,05,28,01,44,5.60
2011,05,28,01,45,5.60
2011,05,28,01,46,5.60
2011,05,28,01,47,5.60
2011,05,28,01,48,5.60
2011,05,28,01,49,5.60
2011,05,28,01,50,5.60
2011,05,28,01,51,5.60
2011,05,28,01,52,5.60
2011,05,28,01,53,5.60
2011,05,28,01,54,5.60
2011,05,28,01,55,5.60
2011,05,28,01,56,5.60
2011,05,28,01,57,5.50
2011,05,28,01,58,5.50
2011,05,28,01,59,5.50
2011,05,28,02,00,5.50
2011,05,28,02,01,5.50
2011,05,28,02,02,5.50
2011,05,28,02,03,5.50
2011,05,28,02,04,5.40
2011,05,28,02,05,5.40
2011,05,28,02,06,5.40
2011,05,28,02,07,5.40
2011,05,28,02,08,5.40
2011,05,28,02,09,5.40
2011,05,28,02,10,5.30
2011,05,28,02,11,5.30
2011,05,28,02,12,5.30
2011,05,28,02,13,5.30
2011,05,28,02,14,5.30
2011,05,28,02,15,5.30
2011,05,28,02,16,5.30
2011,05,28,02,17,5.30
2011,05,28,02,18,5.30
2011,05,28,02,19,5.30
2011,05,28,02,20,5.30
2011,05,28,02,21,5.30
2011,05,28,02,22,5.30
2011,05,28,02,23,5.30
2011,05,28,02,24,5.30
2011,05,28,02,25,5.30
2011,05,28,02,26,5.30
2011,05,28,02,27,5.30
2011,05,28,02,28,5.30
2011,05,28,02,29,5.20
2011,05,28,02,30,5.20
2011,05,28,02,31,5.20
2011,05,28,02,32,5.20
2011,05,28,02,33,5.20
2011,05,28,02,34,5.20
2011,05,28,02,35,5.20
2011,05,28,02,36,5.20
2011,05,28,02,37,5.10
2011,05,28,02,38,5.10
2011,05,28,02,39,5.10
2011,05,28,02,40,5.10
2011,05,28,02,41,5.10
2011,05,28,02,42,5.10
2011,05,28,02,43,5.10
2011,05,28,02,44,5.10
2011,05,28,02,45,5.10
2011,05,28,02,46,5.10
2011,05,28,02,47,5.10
2011,05,28,02,48,5.10
2011,05,28,02,49,5.10
2011,05,28,02,50,5.10
2011,05,28,02,51,5.10
2011,05,28,02,52,5.00
2011,05,28,02,53,5.00
2011,05,28,02,54,5.00
2011,05,28,02,55,5.00
2011,05,28,02,56,5.00
2011,05,28,02,57,5.00
2011,05,28,02,58,5.00
2011,05,28,02,59,5.00
2011,05,28,03,00,5.00
2011,05,28,03,01,5.00
2011,05,28,03,02,5.00
2011,05,28,03,03,5.00
2011,05,28,03,04,4.90
2011,05,28,03,05,4.90
2011,05,28,03,06,4.90
2011,05,28,03,07,4.90
2011,05,28,03,08,4.90
2011,05,28,03,09,4.90
2011,05,28,03,10,4.90
2011,05,28,03,11,4.90
2011,05,28,03,12,4.90
2011,05,28,03,13,4.90
2011,05,28,03,14,4.90
2011,05,28,03,15,4.90
2011,05,28,03,16,4.90
2011,05,28,03,17,4.90
2011,05,28,03,18,4.90
2011,05,28,03,19,4.90
2011,05,28,03,20,4.90
2011,05,28,03,21,4.90
2011,05,28,03,22,4.90
2011,05,28,03,23,4.90
2011,05,28,03,24,4.90
2011,05,28,03,25,4.80
2011,05,28,03,26,4.80
2011,05,28,03,27,4.80
2011,05,28,03,28,4.80
2011,05,28,03,29,4.80
2011,05,28,03,30,4.80
2011,05,28,03,31,4.80
2011,05,28,03,32,4.80
2011,05,28,03,33,4.80
2011,05,28,03,34,4.80
2011,05,28,03,35,4.80
2011,05,28,03,36,4.80
2011,05,28,03,37,4.80
2011,05,28,03,38,4.80
2011,05,28,03,39,4.80
2011,05,28,03,40,4.80
2011,05,28,03,41,4.80
2011,05,28,03,42,4.80
2011,05,28,03,43,4.80
2011,05,28,03,44,4.80
2011,05,28,03,45,4.80
2011,05,28,03,46,4.80
2011,05,28,03,47,4.70
2011,05,28,03,48,4.70
2011,05,28,03,49,4.80
2011,05,28,03,50,4.70
2011,05,28,03,51,4.70
2011,05,28,03,52,4.70
2011,05,28,03,53,4.70
2011,05,28,03,54,4.80
2011,05,28,03,55,4.80
2011,05,28,03,56,4.80
2011,05,28,03,57,4.70
2011,05,28,03,58,4.80
2011,05,28,03,59,4.80
2011,05,28,04,00,4.70
2011,05,28,04,01,4.70
2011,05,28,04,02,4.70
2011,05,28,04,03,4.70
2011,05,28,04,04,4.70
2011,05,28,04,05,4.70
2011,05,28,04,06,4.70
2011,05,28,04,07,4.70
2011,05,28,04,08,4.70
2011,05,28,04,09,4.70
2011,05,28,04,10,4.70
2011,05,28,04,11,4.70
2011,05,28,04,12,4.70
2011,05,28,04,13,4.70
2011,05,28,04,14,4.70
2011,05,28,04,15,4.70
2011,05,28,04,16,4.70
2011,05,28,04,17,4.70
2011,05,28,04,18,4.70
2011,05,28,04,19,4.70
2011,05,28,04,20,4.70
2011,05,28,04,21,4.70
2011,05,28,04,22,4.70
2011,05,28,04,23,4.70
2011,05,28,04,24,4.70
2011,05,28,04,25,4.70
2011,05,28,04,26,4.60
2011,05,28,04,27,4.60
2011,05,28,04,28,4.60
2011,05,28,04,29,4.60
2011,05,28,04,30,4.60
2011,05,28,04,31,4.60
2011,05,28,04,32,4.60
2011,05,28,04,33,4.60
2011,05,28,04,34,4.60
2011,05,28,04,35,4.60
2011,05,28,04,36,4.60
2011,05,28,04,37,4.60
2011,05,28,04,38,4.60
2011,05,28,04,39,4.60
2011,05,28,04,40,4.60
2011,05,28,04,41,4.60
2011,05,28,04,42,4.60
2011,05,28,04,43,4.50
2011,05,28,04,44,4.50
2011,05,28,04,45,4.50
2011,05,28,04,46,4.50
2011,05,28,04,47,4.50
2011,05,28,04,48,4.50
2011,05,28,04,49,4.50
2011,05,28,04,50,4.50
2011,05,28,04,51,4.50
2011,05,28,04,52,4.50
2011,05,28,04,53,4.40
2011,05,28,04,54,4.40
2011,05,28,04,55,4.40
2011,05,28,04,56,4.40
2011,05,28,04,57,4.40
2011,05,28,04,58,4.40
2011,05,28,04,59,4.40
2011,05,28,05,00,4.40
2011,05,28,05,01,4.40
2011,05,28,05,02,4.40
2011,05,28,05,03,4.40
2011,05,28,05,04,4.40
2011,05,28,05,05,4.30
2011,05,28,05,06,4.30
2011,05,28,05,07,4.30
2011,05,28,05,08,4.30
2011,05,28,05,09,4.30
2011,05,28,05,10,4.30
2011,05,28,05,11,4.30
2011,05,28,05,12,4.30
2011,05,28,05,13,4.30
2011,05,28,05,14,4.30
2011,05,28,05,15,4.30
2011,05,28,05,16,4.30
2011,05,28,05,17,4.30
2011,05,28,05,18,4.30
2011,05,28,05,19,4.30
2011,05,28,05,20,4.40
2011,05,28,05,21,4.40
2011,05,28,05,22,4.40
2011,05,28,05,23,4.40
2011,05,28,05,24,4.40
2011,05,28,05,25,4.40
2011,05,28,05,26,4.40
2011,05,28,05,27,4.40
2011,05,28,05,28,4.40
2011,05,28,05,29,4.40
2011,05,28,05,30,4.40
2011,05,28,05,31,4.40
2011,05,28,05,32,4.40
2011,05,28,05,33,4.40
2011,05,28,05,34,4.40
2011,05,28,05,35,4.40
2011,05,28,05,36,4.40
2011,05,28,05,37,4.30
2011,05,28,05,38,4.30
2011,05,28,05,39,4.30
2011,05,28,05,40,4.30
2011,05,28,05,41,4.30
2011,05,28,05,42,4.30
2011,05,28,05,43,4.30
2011,05,28,05,44,4.30
2011,05,28,05,45,4.30
2011,05,28,05,46,4.30
2011,05,28,05,47,4.30
2011,05,28,05,48,4.30
2011,05,28,05,49,4.30
2011,05,28,05,50,4.30
2011,05,28,05,51,4.30
2011,05,28,05,52,4.30
2011,05,28,05,53,4.30
2011,05,28,05,54,4.30
2011,05,28,05,55,4.40
2011,05,28,05,56,4.40
2011,05,28,05,57,4.40
2011,05,28,05,58,4.40
2011,05,28,05,59,4.40
2011,05,28,06,00,4.40
2011,05,28,06,01,4.40
2011,05,28,06,02,4.40
2011,05,28,06,03,4.40
2011,05,28,06,04,4.40
2011,05,28,06,05,4.40
2011,05,28,06,06,4.50
2011,05,28,06,07,4.50
2011,05,28,06,08,4.50
2011,05,28,06,09,4.50
2011,05,28,06,10,4.50
2011,05,28,06,11,4.50
2011,05,28,06,12,4.50
2011,05,28,06,13,4.50
2011,05,28,06,14,4.50
2011,05,28,06,15,4.50
2011,05,28,06,16,4.50
2011,05,28,06,17,4.60
2011,05,28,06,18,4.60
2011,05,28,06,19,4.60
2011,05,28,06,20,4.60
2011,05,28,06,21,4.60
2011,05,28,06,22,4.60
2011,05,28,06,23,4.60
2011,05,28,06,24,4.60
2011,05,28,06,25,4.60
2011,05,28,06,26,4.70
2011,05,28,06,27,4.70
2011,05,28,06,28,4.70
2011,05,28,06,29,4.70
2011,05,28,06,30,4.80
2011,05,28,06,31,4.80
2011,05,28,06,32,4.80
2011,05,28,06,33,4.90
2011,05,28,06,34,4.90
2011,05,28,06,35,4.90
2011,05,28,06,36,4.90
2011,05,28,06,37,5.00
2011,05,28,06,38,5.00
2011,05,28,06,39,5.00
2011,05,28,06,40,5.00
2011,05,28,06,41,5.10
2011,05,28,06,42,5.10
2011,05,28,06,43,5.10
2011,05,28,06,44,5.10
2011,05,28,06,45,5.10
2011,05,28,06,46,5.10
2011,05,28,06,47,5.10
2011,05,28,06,48,5.10
2011,05,28,06,49,5.10
2011,05,28,06,50,5.10
2011,05,28,06,51,5.20
2011,05,28,06,52,5.20
2011,05,28,06,53,5.20
2011,05,28,06,54,5.20
2011,05,28,06,55,5.30
2011,05,28,06,56,5.30
2011,05,28,06,57,5.30
2011,05,28,06,58,5.40
2011,05,28,06,59,5.40
2011,05,28,07,00,5.40
2011,05,28,07,01,5.50
2011,05,28,07,02,5.50
2011,05,28,07,03,5.60
2011,05,28,07,04,5.60
2011,05,28,07,05,5.70
2011,05,28,07,06,5.70
2011,05,28,07,07,5.70
2011,05,28,07,08,5.80
2011,05,28,07,09,5.80
2011,05,28,07,10,5.80
2011,05,28,07,11,5.80
2011,05,28,07,12,5.90
2011,05,28,07,13,5.90
2011,05,28,07,14,5.90
2011,05,28,07,15,5.90
2011,05,28,07,16,5.90
2011,05,28,07,17,6.00
2011,05,28,07,18,6.00
2011,05,28,07,19,6.10
2011,05,28,07,20,6.10
2011,05,28,07,21,6.20
2011,05,28,07,22,6.20
2011,05,28,07,23,6.20
2011,05,28,07,24,6.30
2011,05,28,07,25,6.30
2011,05,28,07,26,6.30
2011,05,28,07,27,6.40
2011,05,28,07,28,6.40
2011,05,28,07,29,6.40
2011,05,28,07,30,6.50
2011,05,28,07,31,6.50
2011,05,28,07,32,6.60
2011,05,28,07,33,6.60
2011,05,28,07,34,6.70
2011,05,28,07,35,6.70
2011,05,28,07,36,6.70
2011,05,28,07,37,6.70
2011,05,28,07,38,6.80
2011,05,28,07,39,6.80
2011,05,28,07,40,6.80
2011,05,28,07,41,6.80
2011,05,28,07,42,6.90
2011,05,28,07,43,6.90
2011,05,28,07,44,6.90
2011,05,28,07,45,7.00
2011,05,28,07,46,7.00
2011,05,28,07,47,7.10
2011,05,28,07,48,7.10
2011,05,28,07,49,7.10
2011,05,28,07,50,7.20
2011,05,28,07,51,7.20
2011,05,28,07,52,7.20
2011,05,28,07,53,7.30
2011,05,28,07,54,7.30
2011,05,28,07,55,7.30
2011,05,28,07,56,7.40
2011,05,28,07,57,7.40
2011,05,28,07,58,7.50
2011,05,28,07,59,7.50
2011,05,28,08,00,7.60
2011,05,28,08,01,7.70
2011,05,28,08,02,7.70
2011,05,28,08,03,7.80
2011,05,28,08,04,7.80
2011,05,28,08,05,7.90
2011,05,28,08,06,7.90
2011,05,28,08,07,8.00
2011,05,28,08,08,8.00
2011,05,28,08,09,8.10
2011,05,28,08,10,8.10
2011,05,28,08,11,8.10
2011,05,28,08,12,8.20
2011,05,28,08,13,8.20
2011,05,28,08,14,8.30
2011,05,28,08,15,8.30
2011,05,28,08,16,8.40
2011,05,28,08,17,8.40
2011,05,28,08,18,8.40
2011,05,28,08,19,8.50
2011,05,28,08,20,8.60
2011,05,28,08,21,8.60
2011,05,28,08,22,8.70
2011,05,28,08,23,8.70
2011,05,28,08,24,8.80
2011,05,28,08,25,8.80
2011,05,28,08,26,8.90
2011,05,28,08,27,8.90
2011,05,28,08,28,9.00
2011,05,28,08,29,9.00
2011,05,28,08,30,9.10
2011,05,28,08,31,9.20
2011,05,28,08,32,9.20
2011,05,28,08,33,9.30
2011,05,28,08,34,9.30
2011,05,28,08,35,9.40
2011,05,28,08,36,9.40
2011,05,28,08,37,9.40
2011,05,28,08,38,9.50
2011,05,28,08,39,9.50
2011,05,28,08,40,9.50
2011,05,28,08,41,9.60
2011,05,28,08,42,9.60
2011,05,28,08,43,9.60
2011,05,28,08,44,9.60
2011,05,28,08,45,9.60
2011,05,28,08,46,9.60
2011,05,28,08,47,9.60
2011,05,28,08,48,9.60
2011,05,28,08,49,9.60
2011,05,28,08,50,9.60
2011,05,28,08,51,9.60
2011,05,28,08,52,9.60
2011,05,28,08,53,9.60
2011,05,28,08,54,9.60
2011,05,28,08,55,9.60
2011,05,28,08,56,9.50
2011,05,28,08,57,9.50
2011,05,28,08,58,9.50
2011,05,28,08,59,9.50
2011,05,28,09,00,9.50
2011,05,28,09,01,9.50
2011,05,28,09,02,9.50
2011,05,28,09,03,9.50
2011,05,28,09,04,9.60
2011,05,28,09,05,9.60
2011,05,28,09,06,9.60
2011,05,28,09,07,9.60
2011,05,28,09,08,9.60
2011,05,28,09,09,9.60
2011,05,28,09,10,9.60
2011,05,28,09,11,9.60
2011,05,28,09,12,9.70
2011,05,28,09,13,9.70
2011,05,28,09,14,9.70
2011,05,28,09,15,9.70
2011,05,28,09,16,9.70
2011,05,28,09,17,9.70
2011,05,28,09,18,9.80
2011,05,28,09,19,9.80
2011,05,28,09,20,9.80
2011,05,28,09,21,9.90
2011,05,28,09,22,9.90
2011,05,28,09,23,9.90
2011,05,28,09,24,9.90
2011,05,28,09,25,9.90
2011,05,28,09,26,9.90
2011,05,28,09,27,9.90
2011,05,28,09,28,9.90
2011,05,28,09,29,9.90
2011,05,28,09,30,9.90
2011,05,28,09,31,9.90
2011,05,28,09,32,9.90
2011,05,28,09,33,9.80
2011,05,28,09,34,9.80
2011,05,28,09,35,9.80
2011,05,28,09,36,9.70
2011,05,28,09,37,9.70
2011,05,28,09,38,9.70
2011,05,28,09,39,9.70
2011,05,28,09,40,9.60
2011,05,28,09,41,9.60
2011,05,28,09,42,9.60
2011,05,28,09,43,9.60
2011,05,28,09,44,9.50
2011,05,28,09,45,9.50
2011,05,28,09,46,9.50
2011,05,28,09,47,9.50
2011,05,28,09,48,9.50
2011,05,28,09,49,9.50
2011,05,28,09,50,9.50
2011,05,28,09,51,9.50
2011,05,28,09,52,9.50
2011,05,28,09,53,9.50
2011,05,28,09,54,9.60
2011,05,28,09,55,9.50
2011,05,28,09,56,9.50
2011,05,28,09,57,9.50
2011,05,28,09,58,9.50
2011,05,28,09,59,9.40
2011,05,28,10,00,9.40
2011,05,28,10,01,9.40
2011,05,28,10,02,9.40
2011,05,28,10,03,9.40
2011,05,28,10,04,9.40
2011,05,28,10,05,9.40
2011,05,28,10,06,9.40
2011,05,28,10,07,9.40
2011,05,28,10,08,9.40
2011,05,28,10,09,9.40
2011,05,28,10,10,9.40
2011,05,28,10,11,9.40
2011,05,28,10,12,9.40
2011,05,28,10,13,9.40
2011,05,28,10,14,9.40
2011,05,28,10,15,9.40
2011,05,28,10,16,9.40
2011,05,28,10,17,9.50
2011,05,28,10,18,9.50
2011,05,28,10,19,9.50
2011,05,28,10,20,9.50
2011,05,28,10,21,9.50
2011,05,28,10,22,9.60
2011,05,28,10,23,9.60
2011,05,28,10,24,9.60
2011,05,28,10,25,9.60
2011,05,28,10,26,9.60
2011,05,28,10,27,9.60
2011,05,28,10,28,9.60
2011,05,28,10,29,9.60
2011,05,28,10,30,9.70
2011,05,28,10,31,9.70
2011,05,28,10,32,9.70
2011,05,28,10,33,9.70
2011,05,28,10,34,9.70
2011,05,28,10,35,9.70
2011,05,28,10,36,9.70
2011,05,28,10,37,9.80
2011,05,28,10,38,9.80
2011,05,28,10,39,9.80
2011,05,28,10,40,9.80
2011,05,28,10,41,9.80
2011,05,28,10,42,9.80
2011,05,28,10,43,9.80
2011,05,28,10,44,9.80
2011,05,28,10,45,9.80
2011,05,28,10,46,9.80
2011,05,28,10,47,9.80
2011,05,28,10,48,9.70
2011,05,28,10,49,9.70
2011,05,28,10,50,9.70
2011,05,28,10,51,9.70
2011,05,28,10,52,9.70
2011,05,28,10,53,9.60
2011,05,28,10,54,9.60
2011,05,28,10,55,9.60
2011,05,28,10,56,9.60
2011,05,28,10,57,9.60
2011,05,28,10,58,9.60
2011,05,28,10,59,9.60
2011,05,28,11,00,9.60
2011,05,28,11,01,9.60
2011,05,28,11,02,9.60
2011,05,28,11,03,9.60
2011,05,28,11,04,9.60
2011,05,28,11,05,9.50
2011,05,28,11,06,9.50
2011,05,28,11,07,9.50
2011,05,28,11,08,9.50
2011,05,28,11,09,9.50
2011,05,28,11,10,9.50
2011,05,28,11,11,9.60
2011,05,28,11,12,9.60
2011,05,28,11,13,9.60
2011,05,28,11,14,9.60
2011,05,28,11,15,9.60
2011,05,28,11,16,9.60
2011,05,28,11,17,9.60
2011,05,28,11,18,9.60
2011,05,28,11,19,9.60
2011,05,28,11,20,9.60
2011,05,28,11,21,9.70
2011,05,28,11,22,9.70
2011,05,28,11,23,9.70
2011,05,28,11,24,9.80
2011,05,28,11,25,9.80
2011,05,28,11,26,9.90
2011,05,28,11,27,9.90
2011,05,28,11,28,10.00
2011,05,28,11,29,10.10
2011,05,28,11,30,10.10
2011,05,28,11,31,10.10
2011,05,28,11,32,10.20
2011,05,28,11,33,10.30
2011,05,28,11,34,10.30
2011,05,28,11,35,10.40
2011,05,28,11,36,10.40
2011,05,28,11,37,10.50
2011,05,28,11,38,10.60
2011,05,28,11,39,10.70
2011,05,28,11,40,10.80
2011,05,28,11,41,10.90
2011,05,28,11,42,10.90
2011,05,28,11,43,10.90
2011,05,28,11,44,11.00
2011,05,28,11,45,11.00
2011,05,28,11,46,11.00
2011,05,28,11,47,11.10
2011,05,28,11,48,11.20
2011,05,28,11,49,11.20
2011,05,28,11,50,11.30
2011,05,28,11,51,11.40
2011,05,28,11,52,11.40
2011,05,28,11,53,11.50
2011,05,28,11,54,11.60
2011,05,28,11,55,11.70
2011,05,28,11,56,11.70
2011,05,28,11,57,11.80
2011,05,28,11,58,11.80
2011,05,28,11,59,11.80
2011,05,28,12,00,11.80
2011,05,28,12,01,11.80
2011,05,28,12,02,11.80
2011,05,28,12,03,11.90
2011,05,28,12,04,11.90
2011,05,28,12,05,11.90
2011,05,28,12,06,11.90
2011,05,28,12,07,11.90
2011,05,28,12,08,11.90
2011,05,28,12,09,11.90
2011,05,28,12,10,11.90
2011,05,28,12,11,11.90
2011,05,28,12,12,11.90
2011,05,28,12,13,12.00
2011,05,28,12,14,12.00
2011,05,28,12,15,12.10
2011,05,28,12,16,12.20
2011,05,28,12,17,12.20
2011,05,28,12,18,12.20
2011,05,28,12,19,12.20
2011,05,28,12,20,12.30
2011,05,28,12,21,12.30
2011,05,28,12,22,12.40
2011,05,28,12,23,12.40
2011,05,28,12,24,12.50
2011,05,28,12,25,12.50
2011,05,28,12,26,12.60
2011,05,28,12,27,12.60
2011,05,28,12,28,12.60
2011,05,28,12,29,12.70
2011,05,28,12,30,12.70
2011,05,28,12,31,12.60
2011,05,28,12,32,12.60
2011,05,28,12,33,12.60
2011,05,28,12,34,12.50
2011,05,28,12,35,12.50
2011,05,28,12,36,12.40
2011,05,28,12,37,12.40
2011,05,28,12,38,12.40
2011,05,28,12,39,12.40
2011,05,28,12,40,12.30
2011,05,28,12,41,12.30
2011,05,28,12,42,12.20
2011,05,28,12,43,12.10
2011,05,28,12,44,12.10
2011,05,28,12,45,12.10
2011,05,28,12,46,12.00
2011,05,28,12,47,12.00
2011,05,28,12,48,12.00
2011,05,28,12,49,12.00
2011,05,28,12,50,12.00
2011,05,28,12,51,12.00
2011,05,28,12,52,12.10
2011,05,28,12,53,12.10
2011,05,28,12,54,12.20
2011,05,28,12,55,12.20
2011,05,28,12,56,12.20
2011,05,28,12,57,12.20
2011,05,28,12,58,12.20
2011,05,28,12,59,12.30
2011,05,28,13,00,12.30
2011,05,28,13,01,12.30
2011,05,28,13,02,12.30
2011,05,28,13,03,12.30
2011,05,28,13,04,12.30
2011,05,28,13,05,12.20
2011,05,28,13,06,12.20
2011,05,28,13,07,12.20
2011,05,28,13,08,12.10
2011,05,28,13,09,12.10
2011,05,28,13,10,12.10
2011,05,28,13,11,12.10
2011,05,28,13,12,12.10
2011,05,28,13,13,12.20
2011,05,28,13,14,12.20
2011,05,28,13,15,12.30
2011,05,28,13,16,12.30
2011,05,28,13,17,12.30
2011,05,28,13,18,12.30
2011,05,28,13,19,12.40
2011,05,28,13,20,12.40
2011,05,28,13,21,12.40
2011,05,28,13,22,12.40
2011,05,28,13,23,12.40
2011,05,28,13,24,12.40
2011,05,28,13,25,12.50
2011,05,28,13,26,12.50
2011,05,28,13,27,12.60
2011,05,28,13,28,12.70
2011,05,28,13,29,12.80
2011,05,28,13,30,12.80
2011,05,28,13,31,12.90
2011,05,28,13,32,13.00
2011,05,28,13,33,13.00
2011,05,28,13,34,13.00
2011,05,28,13,35,13.00
2011,05,28,13,36,13.00
2011,05,28,13,37,12.90
2011,05,28,13,38,12.90
2011,05,28,13,39,12.80
2011,05,28,13,40,12.80
2011,05,28,13,41,12.80
2011,05,28,13,42,12.80
2011,05,28,13,43,12.80
2011,05,28,13,44,12.80
2011,05,28,13,45,12.80
2011,05,28,13,46,12.80
2011,05,28,13,47,12.80
2011,05,28,13,48,12.80
2011,05,28,13,49,12.80
2011,05,28,13,50,12.90
2011,05,28,13,51,12.90
2011,05,28,13,52,12.90
2011,05,28,13,53,12.90
2011,05,28,13,54,13.00
2011,05,28,13,55,13.00
2011,05,28,13,56,13.10
2011,05,28,13,57,13.10
2011,05,28,13,58,13.10
2011,05,28,13,59,13.00
2011,05,28,14,00,12.90
2011,05,28,14,01,12.80
2011,05,28,14,02,12.70
2011,05,28,14,03,12.60
2011,05,28,14,04,12.50
2011,05,28,14,05,12.50
2011,05,28,14,06,12.40
2011,05,28,14,07,12.40
2011,05,28,14,08,12.40
2011,05,28,14,09,12.40
2011,05,28,14,10,12.40
2011,05,28,14,11,12.40
2011,05,28,14,12,12.40
2011,05,28,14,13,12.40
2011,05,28,14,14,12.50
2011,05,28,14,15,12.60
2011,05,28,14,16,12.70
2011,05,28,14,17,12.70
2011,05,28,14,18,12.80
2011,05,28,14,19,12.80
2011,05,28,14,20,12.90
2011,05,28,14,21,12.90
2011,05,28,14,22,12.90
2011,05,28,14,23,13.00
2011,05,28,14,24,13.00
2011,05,28,14,25,13.00
2011,05,28,14,26,13.10
2011,05,28,14,27,13.10
2011,05,28,14,28,13.10
2011,05,28,14,29,13.20
2011,05,28,14,30,13.20
2011,05,28,14,31,13.20
2011,05,28,14,32,13.20
2011,05,28,14,33,13.20
2011,05,28,14,34,13.30
2011,05,28,14,35,13.30
2011,05,28,14,36,13.30
2011,05,28,14,37,13.30
2011,05,28,14,38,13.30
2011,05,28,14,39,13.40
2011,05,28,14,40,13.40
2011,05,28,14,41,13.50
2011,05,28,14,42,13.50
2011,05,28,14,43,13.60
2011,05,28,14,44,13.70
2011,05,28,14,45,13.70
2011,05,28,14,46,13.80
2011,05,28,14,47,13.80
2011,05,28,14,48,13.90
2011,05,28,14,49,14.00
2011,05,28,14,50,14.10
2011,05,28,14,51,14.20
2011,05,28,14,52,14.20
2011,05,28,14,53,14.20
2011,05,28,14,54,14.10
2011,05,28,14,55,14.10
2011,05,28,14,56,14.10
2011,05,28,14,57,14.10
2011,05,28,14,58,14.10
2011,05,28,14,59,14.10
2011,05,28,15,00,14.10
2011,05,28,15,01,14.10
2011,05,28,15,02,14.20
2011,05,28,15,03,14.20
2011,05,28,15,04,14.20
2011,05,28,15,05,14.20
2011,05,28,15,06,14.20
2011,05,28,15,07,14.20
2011,05,28,15,08,14.30
2011,05,28,15,09,14.30
2011,05,28,15,10,14.30
2011,05,28,15,11,14.40
2011,05,28,15,12,14.40
2011,05,28,15,13,14.40
2011,05,28,15,14,14.40
2011,05,28,15,15,14.40
2011,05,28,15,16,14.40
2011,05,28,15,17,14.40
2011,05,28,15,18,14.40
2011,05,28,15,19,14.40
2011,05,28,15,20,14.40
2011,05,28,15,21,14.40
2011,05,28,15,22,14.40
2011,05,28,15,23,14.50
2011,05,28,15,24,14.60
2011,05,28,15,25,14.60
2011,05,28,15,26,14.70
2011,05,28,15,27,14.80
2011,05,28,15,28,14.90
2011,05,28,15,29,15.00
2011,05,28,15,30,15.00
2011,05,28,15,31,15.00
2011,05,28,15,32,15.00
2011,05,28,15,33,15.00
2011,05,28,15,34,15.00
2011,05,28,15,35,15.00
2011,05,28,15,36,15.00
2011,05,28,15,37,15.00
2011,05,28,15,38,15.00
2011,05,28,15,39,15.10
2011,05,28,15,40,15.10
2011,05,28,15,41,15.10
2011,05,28,15,42,15.20
2011,05,28,15,43,15.20
2011,05,28,15,44,15.20
2011,05,28,15,45,15.20
2011,05,28,15,46,15.20
2011,05,28,15,47,15.00
2011,05,28,15,48,15.00
2011,05,28,15,49,15.00
2011,05,28,15,50,15.00
2011,05,28,15,51,15.00
2011,05,28,15,52,15.00
2011,05,28,15,53,15.10
2011,05,28,15,54,15.20
2011,05,28,15,55,15.40
2011,05,28,15,56,15.50
2011,05,28,15,57,15.50
2011,05,28,15,58,15.60
2011,05,28,15,59,15.50
2011,05,28,16,00,15.50
2011,05,28,16,01,15.40
2011,05,28,16,02,15.30
2011,05,28,16,03,15.10
2011,05,28,16,04,15.00
2011,05,28,16,05,15.00
2011,05,28,16,06,15.00
2011,05,28,16,07,15.00
2011,05,28,16,08,15.00
2011,05,28,16,09,15.00
2011,05,28,16,10,15.00
2011,05,28,16,11,14.90
2011,05,28,16,12,14.90
2011,05,28,16,13,15.00
2011,05,28,16,14,15.00
2011,05,28,16,15,15.00
2011,05,28,16,16,15.00
2011,05,28,16,17,15.00
2011,05,28,16,18,15.10
2011,05,28,16,19,15.20
2011,05,28,16,20,15.30
2011,05,28,16,21,15.40
2011,05,28,16,22,15.40
2011,05,28,16,23,15.40
2011,05,28,16,24,15.50
2011,05,28,16,25,15.60
2011,05,28,16,26,15.60
2011,05,28,16,27,15.50
2011,05,28,16,28,15.50
2011,05,28,16,29,15.40
2011,05,28,16,30,15.40
2011,05,28,16,31,15.40
2011,05,28,16,32,15.40
2011,05,28,16,33,15.40
2011,05,28,16,34,15.40
2011,05,28,16,35,15.30
2011,05,28,16,36,15.30
2011,05,28,16,37,15.30
2011,05,28,16,38,15.30
2011,05,28,16,39,15.30
2011,05,28,16,40,15.30
2011,05,28,16,41,15.20
2011,05,28,16,42,15.20
2011,05,28,16,43,15.20
2011,05,28,16,44,15.10
2011,05,28,16,45,15.10
2011,05,28,16,46,15.20
2011,05,28,16,47,15.20
2011,05,28,16,48,15.20
2011,05,28,16,49,15.10
2011,05,28,16,50,15.10
2011,05,28,16,51,15.10
2011,05,28,16,52,15.10
2011,05,28,16,53,15.20
2011,05,28,16,54,15.20
2011,05,28,16,55,15.30
2011,05,28,16,56,15.40
2011,05,28,16,57,15.40
2011,05,28,16,58,15.50
2011,05,28,16,59,15.60
2011,05,28,17,00,15.60
2011,05,28,17,01,15.60
2011,05,28,17,02,15.60
2011,05,28,17,03,15.60
2011,05,28,17,04,15.60
2011,05,28,17,05,15.60
2011,05,28,17,06,15.60
2011,05,28,17,07,15.70
2011,05,28,17,08,15.70
2011,05,28,17,09,15.60
2011,05,28,17,10,15.60
2011,05,28,17,11,15.60
2011,05,28,17,12,15.50
2011,05,28,17,13,15.50
2011,05,28,17,14,15.50
2011,05,28,17,15,15.50
2011,05,28,17,16,15.50
2011,05,28,17,17,15.40
2011,05,28,17,18,15.40
2011,05,28,17,19,15.40
2011,05,28,17,20,15.40
2011,05,28,17,21,15.40
2011,05,28,17,22,15.40
2011,05,28,17,23,15.40
2011,05,28,17,24,15.30
2011,05,28,17,25,15.30
2011,05,28,17,26,15.40
2011,05,28,17,27,15.40
2011,05,28,17,28,15.40
2011,05,28,17,29,15.40
2011,05,28,17,30,15.40
2011,05,28,17,31,15.40
2011,05,28,17,32,15.40
2011,05,28,17,33,15.40
2011,05,28,17,34,15.30
2011,05,28,17,35,15.30
2011,05,28,17,36,15.30
2011,05,28,17,37,15.40
2011,05,28,17,38,15.50
2011,05,28,17,39,15.50
2011,05,28,17,40,15.60
2011,05,28,17,41,15.70
2011,05,28,17,42,15.80
2011,05,28,17,43,15.80
2011,05,28,17,44,15.80
2011,05,28,17,45,15.90
2011,05,28,17,46,15.90
2011,05,28,17,47,16.00
2011,05,28,17,48,15.90
2011,05,28,17,49,15.90